Probability
0 0 0 0 0 0 0 0 0 0 0 0 0 0 1 1 1 0 1 6 14 17 12 6 6 9 9 7 3 0 0 0 0 0 0 0 0 0 0 0 0 0 0 0 0 0 0 0 0
0 0 0 0 0 0 0 0 0 0 0 0 0 0 1 2 1 1 4 13 24 27 18 10 9 10 11 9 4 1 0 0 0 0 0 0 0 0 0 0 0 0 0 0 0 0 0 0 0
0 0 0 0 0 0 0 0 0 0 0 0 0 0 0 1 2 4 12 27 38 37 25 16 13 12 12 11 6 2 0 0 0 0 0 0 0 0 0 0 0 0 0 0 0 0 0 0 0
0 0 0 0 0 0 0 0 0 0 0 0 1 2 3 4 8 15 27 39 45 40 28 20 18 15 12 11 8 3 1 0 0 0 0 0 0 0 0 0 0 0 0 0 0 0 0 0 0
0 0 0 0 0 0 0 0 0 0 0 1 4 8 9 12 21 33 40 44 44 40 30 22 21 19 16 13 9 5 2 1 0 0 0 0 0 0 0 0 0 0 0 0 0 0 0 0 0
0 0 0 0 0 0 0 0 0 0 0 2 9 16 17 20 31 40 43 41 42 42 33 22 19 20 19 14 11 8 3 1 0 0 0 0 0 0 0 0 0 0 0 0 0 0 0 0 0
0 0 0 0 0 0 0 0 0 0 0 3 12 20 21 21 29 38 40 38 41 44 36 24 18 18 16 12 11 8 4 1 0 0 0 0 0 0 0 0 0 0 0 0 0 0 0 0 0
0 0 0 0 0 0 0 0 0 0 0 3 10 17 18 18 27 39 41 37 36 38 36 27 21 18 14 11 9 8 5 1 0 0 1 1 0 0 0 0 0 0 0 0 0 0 0 0 0
0 0 0 0 0 0 0 0 0 0 0 4 9 12 13 17 29 43 46 41 34 30 29 28 26 24 19 13 10 9 8 3 1 1 2 2 1 0 0 0 0 0 0 0 0 0 0 0 0
0 0 0 0 0 0 0 0 0 0 0 4 10 14 16 21 32 45 51 48 36 26 23 23 25 25 22 19 15 14 11 6 3 3 3 2 1 0 0 0 0 0 0 0 0 0 0 0 0
0 0 0 0 0 0 0 0 0 0 0 4 12 19 21 23 30 42 52 51 40 26 20 18 19 19 19 21 19 15 11 6 4 3 2 1 0 0 0 0 0 0 0 0 0 0 0 0 0
0 0 0 0 0 0 0 0 0 0 0 4 14 21 20 18 23 35 48 50 40 26 17 15 13 12 14 16 15 10 6 4 3 2 1 0 0 0 0 0 0 0 0 0 0 0 0 0 0
0 0 0 0 0 0 0 0 0 0 1 5 14 18 15 12 15 26 42 50 43 30 22 17 12 9 10 10 7 3 2 1 1 1 0 0 0 0 0 0 0 0 0 0 0 0 0 0 0
0 0 0 0 0 0 0 0 0 0 1 5 11 13 11 10 13 23 40 52 51 42 31 21 11 7 6 5 3 1 0 0 0 0 0 0 0 0 0 0 0 0 0 0 0 0 0 0 0
0 0 0 0 0 0 0 0 0 1 3 6 9 11 12 12 16 26 43 57 58 51 41 27 14 7 4 2 1 1 0 0 0 0 0 0 0 0 0 0 0 0 0 0 0 0 0 0 0
0 0 0 0 0 0 0 0 1 3 5 9 13 15 16 17 21 32 48 59 60 57 53 42 29 18 11 7 4 3 2 1 1 1 0 0 0 0 0 0 0 1 1 0 0 0 0 0 0
0 0 0 0 0 0 1 3 5 7 9 14 20 23 22 22 27 39 53 61 62 63 65 62 53 42 33 24 16 11 8 6 6 4 3 3 3 2 2 2 2 3 3 2 1 1 0 0 0
0 0 0 0 1 1 4 8 11 13 16 20 25 28 29 30 36 47 60 64 63 67 73 75 71 65 57 48 39 30 22 17 15 12 10 9 10 12 11 9 7 7 8 5 3 1 0 0 0
0 0 0 0 1 2 7 14 20 22 24 26 29 30 33 39 46 54 61 64 64 68 74 76 77 74 70 64 58 51 40 31 27 22 17 14 18 24 25 20 15 14 12 8 3 1 1 1 1
0 0 0 0 1 2 7 18 27 30 29 31 32 32 33 39 46 50 54 56 57 59 63 66 68 70 69 67 65 60 50 39 32 25 18 17 22 28 30 27 23 20 15 10 6 4 4 3 3
0 0 0 0 0 0 5 14 23 26 28 30 31 31 30 31 34 38 41 43 43 44 47 49 52 57 60 61 62 59 49 38 30 24 19 18 22 25 25 24 24 21 16 12 10 9 7 6 6
0 0 0 0 0 0 1 4 10 15 20 22 23 23 22 20 23 28 30 30 30 31 33 35 39 44 47 50 54 53 44 33 26 24 20 17 18 19 17 16 17 16 14 12 11 9 8 8 8
0 0 0 0 0 0 0 0 2 6 12 16 17 17 16 14 15 20 22 21 21 21 22 25 30 33 34 37 40 41 36 28 24 22 19 15 12 12 11 10 10 11 10 9 8 7 6 6 6
0 0 0 0 0 0 0 0 1 4 8 13 17 18 15 12 12 14 16 15 14 14 15 18 21 23 24 24 25 25 24 21 18 17 14 11 8 6 6 6 6 6 5 4 4 3 3 3 3
0 0 0 0 0 0 0 0 1 4 8 13 17 17 14 11 9 10 10 10 9 10 12 13 14 15 16 14 13 13 12 11 11 11 9 6 4 3 2 2 2 2 1 1 1 1 1 1 1
0 0 0 0 0 0 0 0 1 6 11 15 16 14 11 8 7 7 7 7 7 7 8 9 10 10 9 8 7 6 5 5 5 5 3 2 1 1 0 0 0 0 0 0 0 0 0 0 0
0 0 0 0 0 0 0 0 1 6 13 15 13 10 8 7 6 6 6 6 5 5 4 4 5 5 4 4 3 3 2 2 2 1 1 0 0 0 0 0 0 0 0 0 0 0 0 0 0
0 0 0 0 0 0 0 0 1 4 9 11 8 6 5 5 6 5 4 3 3 2 1 1 1 1 1 1 1 1 1 0 0 0 0 0 0 0 0 0 0 0 0 0 0 0 0 0 0
0 0 0 0 0 0 0 0 0 1 3 4 4 3 3 3 3 3 1 1 1 0 0 0 0 0 0 0 0 0 0 0 0 0 0 0 0 0 0 0 0 0 0 0 0 0 0 0 0
0 0 0 0 0 0 0 0 0 0 0 1 1 1 1 1 1 1 0 0 0 0 0 0 0 0 0 0 0 0 0 0 0 0 0 0 0 0 0 0 0 0 0 0 0 0 0 0 0
Wind_Speed
10 7 1 3 5 3 4 5 2 2 2 2 1 3 4 4 6 6 5 16 18 18 16 18 19 20 20 20 20 19 18 18 17 17 17 16 16 16 15 15 14 14 14 14 13 13 13 13 13
5 4 3 4 4 1 6 4 3 5 5 4 1 1 2 3 3 5 8 16 21 19 15 16 20 20 21 21 20 19 18 18 17 16 16 16 15 15 14 14 14 13 13 12 12 12 11 11 11
5 1 2 3 3 6 6 4 4 3 3 5 3 2 3 4 4 5 9 19 19 17 15 17 22 20 21 21 21 19 19 18 17 16 16 15 15 14 13 13 13 12 12 11 11 10 10 9 9
3 4 3 2 8 7 6 5 4 2 0 4 6 2 6 4 3 7 16 19 18 16 14 18 22 21 20 21 21 20 19 18 17 16 16 15 14 13 13 12 12 12 11 10 10 9 8 7 7
3 3 1 4 7 7 7 7 5 3 3 3 6 5 6 8 8 17 17 18 18 15 12 16 20 20 20 21 20 20 19 18 17 16 15 14 13 13 12 12 11 11 10 9 9 7 6 5 5
3 3 2 6 7 7 7 5 3 2 2 2 6 4 3 3 12 17 15 14 15 16 14 14 20 21 20 21 20 19 18 17 17 16 15 14 13 12 12 11 11 10 9 9 8 6 5 3 3
4 3 5 6 6 8 10 3 3 2 1 2 6 4 2 3 8 14 15 14 13 15 14 12 13 16 19 20 19 19 18 17 17 16 15 15 14 13 12 11 10 10 9 8 7 6 5 4 2
5 3 3 4 5 9 7 2 2 3 3 2 5 6 3 4 3 10 13 13 13 13 13 13 11 10 11 13 19 19 18 17 17 17 16 16 15 13 13 10 10 10 9 8 8 7 6 5 4
3 2 5 6 6 8 6 3 3 1 4 4 3 5 7 4 4 10 12 12 12 13 12 12 11 10 10 10 14 16 17 16 16 14 16 14 7 7 8 10 11 11 10 9 8 8 7 6 6
5 4 9 8 7 8 9 5 5 2 2 3 4 4 6 6 9 13 15 15 15 15 13 11 12 11 11 10 9 7 8 9 8 7 8 6 5 5 7 9 12 12 11 10 10 9 7 6 3
5 8 9 10 12 10 8 6 3 5 5 7 10 10 7 8 8 11 14 15 16 16 15 13 12 12 11 8 8 5 5 6 6 8 8 6 5 4 4 3 5 6 8 5 5 5 3 3 3
5 8 10 11 13 10 9 5 3 5 6 8 14 14 11 10 11 11 13 14 14 15 15 15 13 12 9 8 7 6 6 5 6 7 8 6 4 4 4 4 4 4 3 3 3 3 4 5 5
5 9 10 11 12 12 8 6 5 5 5 9 13 15 14 13 11 10 12 15 15 16 16 16 15 13 11 9 7 8 6 7 7 6 7 7 5 5 5 4 4 4 3 4 4 4 4 5 5
7 6 8 8 10 9 8 7 3 6 6 9 12 13 15 15 14 11 12 14 17 17 17 15 16 14 12 10 8 8 7 7 7 7 8 8 5 5 5 5 5 5 4 4 4 5 4 4 3
4 6 9 7 4 4 1 5 5 8 6 8 11 13 14 12 11 12 15 16 17 16 16 15 16 15 14 13 11 8 8 7 7 7 8 8 6 6 5 5 5 5 5 5 4 3 2 1 1
7 5 6 10 5 5 1 7 10 7 6 7 8 10 11 10 11 11 12 12 13 13 14 16 16 15 14 12 9 7 7 8 7 6 7 8 7 6 5 5 5 4 4 3 3 2 2 1 0
5 4 7 11 7 5 3 6 8 4 3 4 4 6 7 6 5 7 10 13 13 11 12 15 14 15 14 11 8 7 7 7 6 6 6 7 7 7 5 4 4 4 3 2 2 1 1 1 1
6 6 8 11 9 5 5 7 5 4 3 2 3 3 5 6 4 3 6 9 10 8 8 11 12 12 12 9 6 4 5 5 5 5 6 7 6 6 5 3 3 3 2 2 1 1 1 1 1
8 9 11 14 10 2 4 3 2 7 9 8 6 7 9 8 7 7 7 6 6 6 5 6 10 10 9 7 6 5 4 4 3 3 4 6 5 5 4 3 2 2 2 2 2 1 1 1 1
9 10 11 11 8 2 4 6 7 9 10 9 8 9 10 10 12 12 12 10 8 8 5 3 4 7 7 6 6 4 4 3 3 3 3 4 3 3 3 3 2 2 1 1 1 1 1 0 1
7 6 7 7 7 4 5 6 6 8 10 12 11 10 11 12 11 11 12 12 10 10 7 4 3 4 4 3 3 4 3 3 2 3 3 4 5 5 4 5 3 2 2 1 1 1 3 2 2
7 8 6 4 3 4 2 2 0 5 9 11 10 10 11 11 11 10 11 12 11 9 9 7 6 6 5 5 5 5 4 3 3 3 4 6 7 7 6 5 5 4 3 2 1 2 0 1 2
8 7 4 3 1 3 2 4 3 3 6 7 9 11 11 12 12 12 12 12 11 10 10 8 7 8 7 6 6 6 5 4 5 6 7 7 7 8 8 7 7 6 5 5 5 4 3 1 1
5 3 5 4 4 2 4 3 3 2 6 8 9 11 12 12 13 13 12 12 12 12 11 9 9 9 9 9 8 8 8 7 7 7 7 6 6 7 9 9 8 7 6 6 6 6 7 5 5
3 5 4 5 4 4 3 3 0 4 8 10 12 11 11 12 12 13 14 14 13 12 11 10 10 10 10 11 11 10 10 9 9 7 8 8 7 7 9 8 9 8 8 8 7 8 8 8 8
2 7 6 3 2 3 4 4 3 8 11 12 12 13 13 13 13 14 14 13 12 13 12 12 12 11 11 12 11 11 11 8 8 10 9 10 8 8 8 10 10 10 10 9 8 8 8 8 9
2 2 7 6 1 1 1 4 4 8 11 12 13 13 13 12 13 13 13 13 13 13 13 12 12 12 13 13 13 13 13 12 12 12 12 10 8 8 10 11 11 10 10 9 8 8 8 8 8
4 3 4 4 3 0 2 2 3 8 11 12 12 12 12 11 12 12 12 12 11 11 12 12 13 13 13 12 12 12 13 13 12 12 13 11 10 10 10 11 10 10 9 9 8 7 7 8 6
3 2 3 3 4 4 1 2 0 9 11 12 12 12 11 11 11 11 11 10 11 12 12 12 12 13 13 12 12 13 13 12 12 12 11 10 10 10 10 9 9 9 9 8 7 7 6 7 6
2 1 4 4 2 3 3 1 4 11 11 12 13 12 11 11 10 10 10 10 11 12 11 12 11 12 12 11 12 13 12 12 12 11 10 9 10 9 9 9 9 9 8 7 7 6 6 6 6
Wind_Direction
316 310 305 74 57 50 252 250 211 167 149 154 179 198 187 183 174 206 169 152 144 148 154 155 151 145 140 135 130 127 124 120 116 113 111 109 109 109 109 109 108 108 107 107 105 104 103 103 103
311 317 29 66 106 238 270 251 206 191 168 131 63 279 254 228 184 134 134 152 147 147 152 154 152 148 143 139 136 133 130 127 123 120 118 116 115 114 113 113 112 112 111 110 108 106 104 102 102
308 262 82 92 175 195 234 261 243 218 152 121 101 345 287 214 158 146 149 146 143 146 151 155 153 149 145 142 140 139 136 133 129 126 124 122 121 119 118 118 118 117 116 114 113 110 107 104 101
5 30 48 134 238 234 226 257 256 223 233 96 103 35 299 260 167 137 138 144 142 146 151 155 154 151 148 146 144 143 141 138 135 132 130 129 127 125 124 124 124 123 122 121 119 116 112 109 103
59 81 28 265 254 260 266 261 233 199 168 127 122 129 301 315 128 130 138 145 144 144 148 154 154 152 150 149 147 147 146 143 140 138 136 135 133 131 131 132 132 132 131 130 128 126 121 116 112
48 81 167 249 267 275 278 261 220 194 184 103 96 102 287 280 139 138 140 143 145 144 147 153 156 154 153 152 151 150 149 147 145 143 142 140 139 139 139 139 141 141 141 141 142 142 140 136 132
130 133 213 240 270 279 277 264 190 176 161 100 106 91 294 243 163 142 139 139 144 145 147 151 157 158 156 154 154 153 152 151 149 147 146 146 147 147 148 149 150 153 154 156 159 165 172 179 192
152 132 249 253 266 273 279 271 220 167 167 133 114 132 218 238 170 136 133 140 144 146 149 153 154 154 154 156 158 157 155 154 153 152 152 153 154 156 158 158 162 166 169 173 177 185 195 206 221
123 107 246 250 253 266 282 291 275 209 143 134 133 173 202 218 159 144 138 140 147 150 153 155 154 153 152 155 161 159 158 157 156 158 159 156 155 157 163 172 176 179 182 187 192 200 210 222 236
132 182 235 233 239 259 276 263 236 196 172 156 153 164 167 177 175 164 157 156 158 159 160 159 158 156 156 160 154 156 158 158 156 159 160 156 159 170 176 188 189 190 193 199 205 213 222 232 245
185 210 240 252 255 254 266 267 216 169 216 192 173 170 175 182 182 175 167 166 165 164 164 163 162 161 162 155 154 157 154 157 159 164 164 163 164 179 186 184 197 199 202 207 216 221 222 227 235
226 248 241 250 256 256 247 237 219 201 219 180 169 163 176 190 194 182 172 172 168 168 169 166 166 165 165 154 160 161 160 166 171 176 175 170 174 186 188 189 193 193 197 203 216 221 224 231 238
261 258 259 254 257 251 245 230 212 227 211 152 156 163 176 193 201 194 177 175 172 174 172 171 169 168 164 157 166 168 170 176 178 181 186 180 179 187 188 192 192 197 199 206 217 224 231 235 239
254 269 279 272 263 254 241 246 197 237 196 161 167 176 187 192 195 190 179 177 179 178 174 173 172 170 165 167 173 174 178 179 181 186 191 189 185 184 185 191 193 199 202 209 214 218 228 234 228
305 322 315 295 271 260 242 283 243 233 208 189 184 186 194 194 196 194 187 181 180 179 173 175 174 170 169 173 178 175 179 178 184 189 192 191 185 183 184 189 194 200 199 200 201 204 206 208 204
354 348 310 294 292 283 157 263 272 255 211 206 197 187 189 188 188 188 185 180 181 177 173 178 177 171 172 174 177 174 178 178 186 188 191 192 188 183 174 178 187 189 181 173 176 182 175 182 162
352 308 288 294 283 268 222 249 276 281 192 209 202 184 179 170 166 175 177 178 176 174 172 177 172 170 172 170 171 172 173 177 183 182 185 190 190 184 175 178 181 173 164 166 180 178 179 187 195
259 269 280 279 280 258 232 246 306 355 90 114 86 103 108 106 117 138 156 162 158 147 157 177 165 168 167 161 154 154 163 170 172 175 180 185 189 180 169 168 167 155 150 165 170 168 134 175 201
246 263 273 279 284 277 224 210 25 44 64 65 64 77 77 75 67 67 75 86 99 97 116 173 164 162 159 156 156 159 166 167 157 160 165 178 179 170 159 152 146 139 156 173 171 144 150 204 160
252 263 274 288 305 355 97 92 65 60 68 70 73 73 74 68 57 58 62 60 67 82 82 91 161 157 160 166 164 158 149 139 130 113 101 103 109 114 121 117 118 117 119 113 133 153 165 180 161
270 252 262 284 323 17 90 56 62 63 69 67 63 66 68 69 67 63 65 58 51 58 55 56 74 103 109 126 122 108 93 83 80 79 80 72 89 90 92 101 100 98 125 155 190 168 172 196 205
273 262 265 295 344 304 87 129 19 92 70 63 59 60 62 63 66 68 69 66 55 47 48 39 43 61 71 89 110 119 125 126 109 98 85 68 62 66 67 71 72 64 58 67 62 72 98 178 203
254 263 275 273 245 310 357 123 231 124 92 76 72 71 66 62 63 63 64 68 64 52 49 42 44 48 58 71 92 103 99 107 102 96 89 75 61 57 59 64 65 62 54 49 47 49 52 62 115
268 345 353 24 67 318 269 145 236 179 144 116 89 75 72 69 66 62 58 58 58 54 51 42 46 48 53 63 65 82 92 97 101 100 96 80 66 56 53 61 64 64 62 57 53 54 56 56 60
27 79 26 358 14 269 315 97 342 87 106 110 102 86 73 68 65 61 56 54 55 56 55 58 56 55 55 62 61 67 77 82 85 87 83 80 70 61 53 59 62 61 62 62 60 61 57 56 63
290 138 155 190 222 293 4 66 66 95 93 92 91 87 78 69 66 64 61 59 58 58 56 59 64 61 62 65 65 64 68 73 72 73 77 75 71 67 66 66 64 62 62 64 63 63 60 58 61
270 225 174 143 172 25 22 100 106 111 101 97 92 85 78 73 69 68 64 60 58 58 56 60 67 67 65 68 70 67 68 73 76 75 74 74 73 73 69 69 67 63 61 61 63 65 61 59 56
175 181 83 103 138 247 310 144 168 149 124 110 99 92 86 80 75 71 69 66 63 62 62 61 64 67 66 68 72 75 72 73 76 78 78 78 75 72 71 67 66 64 61 58 59 60 56 61 53
1 40 98 115 145 147 207 309 354 138 129 118 109 102 97 91 86 79 75 72 71 68 65 64 64 67 67 67 71 75 74 74 76 77 76 76 74 71 71 69 67 63 58 55 57 57 53 57 51
166 193 145 146 185 137 134 6 69 119 121 121 116 108 101 94 89 85 81 77 73 71 69 67 67 68 69 71 73 74 74 75 75 75 73 73 74 70 69 66 64 60 54 49 50 51 46 48 46